Weather History for KAJG - April, 2013

Change the Weather History Date:

Wednesday, April 17, 2013

  Actual Average (KLWV) Record (KLWV)
Temperature  
Mean Temperature 68 °F 57 °F  
Max Temperature 84 °F 67 °F 86 °F (2004)
Min Temperature 53 °F 46 °F 30 °F (1997)
Degree Days  
Heating Degree Days 0 9  
Month to date heating degree days 204  
Since 1 July heating degree days 4501  
Cooling Degree Days 4 1  
Month to date cooling degree days 11  
Year to date cooling degree days 13  
Growing Degree Days 18 (Base 50)    
Moisture  
Dew Point 61 °F    
Average Humidity 79    
Maximum Humidity 100    
Minimum Humidity 51    
Precipitation  
Precipitation 0.08 in 0.13 in 0.81 in (1982)
Month to date precipitation 1.95  
Year to date precipitation 9.77  
Sea Level Pressure  
Sea Level Pressure 30.01 in    
Wind  
Wind Speed 10 mph (ESE)    
Max Wind Speed 21 mph    
Max Gust Speed 26 mph    
Visibility 7 miles    
Events Thunderstorm    
T = Trace of Precipitation, MM = Missing Value Source: NWS Daily Summary

Daily Weather History Graph

Daily Weather History Graph

Search for Another Location

Airport or City:

Trip Planner

Search our weather history database for the weather conditions in past years. The results will help you decide how hot, cold, wet, or windy it might be!

Date:

Astronomy

Apr. 17, 2013 Rise Set
Actual Time 6:11 AM CDT 7:29 PM CDT
Civil Twilight 5:44 AM CDT 7:57 PM CDT
Nautical Twilight 5:11 AM CDT 8:30 PM CDT
Astronomical Twilight 4:36 AM CDT 9:05 PM CDT
Moon 11:26 AM CDT (4/17) 1:05 AM CDT (4/17)
Length of Visible Light 14h 13m
Length of Day
13h 18m
Waxing Crescent, 42% of the Moon is Illuminated
Apr 17
Waxing Crescent
Apr 18
First Quarter
Apr 25
Full
May 2
Last Quarter
May 9
New

Hourly Weather History & Observations

Time (CDT) Temp. Heat Index Dew Point Humidity Pressure Visibility Wind Dir Wind Speed Gust Speed Precip Events Conditions
12:15 AM 55.4 °F - 53.6 °F 94% 30.11 in 5.0 mi NE 10.4 mph - N/A   Overcast
12:35 AM 55.4 °F - 53.6 °F 94% 30.11 in 4.0 mi North 5.8 mph - 0.01 in Thunderstorm Overcast
12:55 AM 55.4 °F - 53.6 °F 94% 30.11 in 5.0 mi NNE 12.7 mph - 0.01 in Thunderstorm Overcast
1:15 AM 55.4 °F - 53.6 °F 94% 30.10 in 5.0 mi NE 12.7 mph - N/A   Overcast
1:35 AM 53.6 °F - 53.6 °F 100% 30.11 in 5.0 mi NNE 9.2 mph - N/A Thunderstorm Overcast
1:55 AM 53.6 °F - 51.8 °F 94% 30.10 in 5.0 mi NNE 8.1 mph - 0.01 in Thunderstorm Overcast
2:15 AM 53.6 °F - 51.8 °F 94% 30.10 in 5.0 mi NNE 9.2 mph - N/A Thunderstorm Overcast
2:35 AM 53.6 °F - 51.8 °F 94% 30.09 in 5.0 mi NE 11.5 mph - N/A   Overcast
2:55 AM 53.6 °F - 51.8 °F 94% 30.11 in 5.0 mi NE 9.2 mph - N/A Thunderstorm Overcast
3:15 AM 53.6 °F - 51.8 °F 94% 30.11 in 5.0 mi NE 11.5 mph - 0.01 in Thunderstorm Overcast
3:35 AM 53.6 °F - 51.8 °F 94% 30.11 in 5.0 mi NE 11.5 mph - 0.01 in Thunderstorm Overcast
3:55 AM 53.6 °F - 53.6 °F 100% 30.11 in 5.0 mi ENE 9.2 mph - 0.01 in   Overcast
4:15 AM 55.4 °F - 53.6 °F 94% 30.12 in 5.0 mi ENE 9.2 mph - N/A   Overcast
4:35 AM 55.4 °F - 53.6 °F 94% 30.11 in 5.0 mi NE 6.9 mph - N/A   Overcast
4:55 AM 55.4 °F - 53.6 °F 94% 30.10 in 5.0 mi East 5.8 mph - N/A Thunderstorm Overcast
5:15 AM 55.4 °F - 53.6 °F 94% 30.10 in 5.0 mi East 4.6 mph - 0.01 in   Overcast
5:35 AM 53.6 °F - 53.6 °F 100% 30.10 in 4.0 mi ENE 4.6 mph - 0.01 in   Overcast
5:55 AM 55.4 °F - 53.6 °F 94% 30.11 in 5.0 mi ENE 4.6 mph - 0.01 in   Overcast
6:15 AM 55.4 °F - 53.6 °F 94% 30.11 in 5.0 mi ENE 6.9 mph - N/A   Overcast
6:35 AM 55.4 °F - 53.6 °F 94% 30.11 in 5.0 mi ENE 5.8 mph - N/A Thunderstorm Overcast
6:55 AM 55.4 °F - 53.6 °F 94% 30.12 in 5.0 mi NE 5.8 mph - 0.01 in   Overcast
7:15 AM 55.4 °F - 53.6 °F 94% 30.11 in 4.0 mi NE 6.9 mph - N/A   Overcast
7:35 AM 57.2 °F - 55.4 °F 94% 30.11 in 5.0 mi East 6.9 mph - N/A   Overcast
7:55 AM 59.0 °F - 55.4 °F 88% 30.10 in 5.0 mi East 10.4 mph - N/A   Overcast
8:15 AM 59.0 °F - 55.4 °F 88% 30.11 in 5.0 mi East 8.1 mph - N/A   Overcast
8:35 AM 60.8 °F - 57.2 °F 88% 30.11 in 3.0 mi East 6.9 mph - N/A   Overcast
9:15 AM 60.8 °F - 59.0 °F 94% 30.11 in 3.0 mi ENE 6.9 mph - 0.01 in   Overcast
9:35 AM 62.6 °F - 59.0 °F 88% 30.11 in 3.0 mi ENE 6.9 mph - 0.01 in   Overcast
9:55 AM 62.6 °F - 60.8 °F 94% 30.10 in 4.0 mi ENE 5.8 mph - 0.01 in   Overcast
10:15 AM 66.2 °F - 60.8 °F 83% 30.10 in 4.0 mi East 8.1 mph - N/A   Haze
10:35 AM 68.0 °F - 62.6 °F 83% 30.09 in 4.0 mi East 8.1 mph - N/A   Overcast
10:55 AM 68.0 °F - 62.6 °F 83% 30.09 in 4.0 mi East 6.9 mph - 0.01 in   Haze
11:15 AM 69.8 °F - 64.4 °F 83% 30.08 in 5.0 mi ESE 6.9 mph - N/A   Haze
11:35 AM 71.6 °F - 64.4 °F 78% 30.06 in 7.0 mi SE 6.9 mph - N/A   Scattered Clouds
11:55 AM 73.4 °F - 68.0 °F 83% 30.05 in 7.0 mi SE 8.1 mph - N/A   Clear
12:15 PM 75.2 °F - 68.0 °F 78% 30.04 in 7.0 mi ESE 4.6 mph - N/A   Clear
12:35 PM 78.8 °F - 69.8 °F 74% 30.04 in 7.0 mi South 6.9 mph - N/A   Scattered Clouds
12:55 PM 78.8 °F - 69.8 °F 74% 30.03 in 7.0 mi South 9.2 mph - N/A   Scattered Clouds
1:15 PM 80.6 °F 83.9 °F 69.8 °F 70% 30.01 in 10.0 mi South 8.1 mph - N/A   Scattered Clouds
1:35 PM 80.6 °F 83.9 °F 69.8 °F 70% 29.99 in 10.0 mi South 9.2 mph - 0.01 in   Mostly Cloudy
1:55 PM 82.4 °F 86.3 °F 69.8 °F 66% 29.99 in 10.0 mi South 9.2 mph - 0.01 in   Mostly Cloudy
2:15 PM 80.6 °F 83.9 °F 69.8 °F 70% 29.99 in 10.0 mi South 10.4 mph - N/A   Mostly Cloudy
2:35 PM 82.4 °F 86.3 °F 69.8 °F 66% 29.97 in 10.0 mi South 13.8 mph 18.4 mph N/A   Scattered Clouds
2:55 PM 82.4 °F 85.4 °F 68.0 °F 62% 29.96 in 10.0 mi South 19.6 mph - N/A   Scattered Clouds
3:35 PM 84.2 °F 87.3 °F 68.0 °F 58% 29.93 in 10.0 mi South 15.0 mph - N/A   Clear
3:55 PM 84.2 °F 87.3 °F 68.0 °F 58% 29.91 in 10.0 mi South 20.7 mph 24.2 mph N/A   Scattered Clouds
4:15 PM 84.2 °F 85.6 °F 64.4 °F 51% 29.91 in 10.0 mi SSW 18.4 mph - N/A   Scattered Clouds
4:35 PM 82.4 °F 83.9 °F 64.4 °F 54% 29.90 in 10.0 mi SSW 20.7 mph 26.5 mph N/A   Clear
4:55 PM 80.6 °F 81.8 °F 62.6 °F 54% 29.90 in 10.0 mi South 17.3 mph 24.2 mph N/A   Clear
5:15 PM 82.4 °F 83.9 °F 64.4 °F 54% 29.90 in 10.0 mi South 16.1 mph - N/A   Clear
5:35 PM 82.4 °F 83.9 °F 64.4 °F 54% 29.89 in 10.0 mi South 12.7 mph 23.0 mph N/A   Clear
5:55 PM 80.6 °F 82.7 °F 66.2 °F 61% 29.90 in 10.0 mi South 15.0 mph - N/A   Clear
6:15 PM 80.6 °F 82.3 °F 64.4 °F 58% 29.90 in 10.0 mi South 12.7 mph - N/A   Clear
6:35 PM 80.6 °F 82.7 °F 66.2 °F 61% 29.89 in 10.0 mi South 12.7 mph 18.4 mph N/A   Clear
6:55 PM 80.6 °F 82.3 °F 64.4 °F 58% 29.89 in 10.0 mi South 10.4 mph - N/A   Clear
7:15 PM 78.8 °F - 64.4 °F 61% 29.89 in 10.0 mi South 10.4 mph - N/A   Clear
7:35 PM 75.2 °F - 66.2 °F 73% 29.88 in 10.0 mi SE 15.0 mph - N/A   Scattered Clouds
7:55 PM 73.4 °F - 66.2 °F 78% 29.87 in 10.0 mi SE 12.7 mph - N/A   Clear
8:15 PM 73.4 °F - 64.4 °F 73% 29.87 in 10.0 mi SE 11.5 mph - N/A   Clear
8:35 PM 73.4 °F - 64.4 °F 73% 29.87 in 10.0 mi SSE 10.4 mph - N/A   Clear
8:55 PM 71.6 °F - 64.4 °F 78% 29.88 in 10.0 mi SSE 8.1 mph - N/A   Scattered Clouds
9:15 PM 71.6 °F - 64.4 °F 78% 29.87 in 10.0 mi SE 10.4 mph - N/A   Scattered Clouds
9:55 PM 73.4 °F - 64.4 °F 73% 29.85 in 10.0 mi SSE 13.8 mph - N/A   Scattered Clouds
10:15 PM 73.4 °F - 64.4 °F 73% 29.84 in 10.0 mi SSE 16.1 mph - N/A   Scattered Clouds
10:35 PM 73.4 °F - 62.6 °F 69% 29.84 in 10.0 mi SSE 11.5 mph - N/A   Clear
10:55 PM 73.4 °F - 62.6 °F 69% 29.83 in 10.0 mi SSE 11.5 mph - N/A   Clear
11:15 PM 73.4 °F - 62.6 °F 69% 29.83 in 10.0 mi SSE 11.5 mph 17.3 mph N/A   Clear
11:35 PM 73.4 °F - 62.6 °F 69% 29.82 in 10.0 mi SSE 11.5 mph 17.3 mph N/A   Clear
11:55 PM 73.4 °F - 62.6 °F 69% 29.81 in 10.0 mi SSE 12.7 mph - N/A   Clear